Location: Alpine
(43.1636°N, 111.0180°W)
Time: 21:37:33
(UTC+00:00)

Tiros 1 despin weight - All Passes

Search period start: 27 May 2022 00:00
Search period end: 06 June 2022 00:00
Orbit: 592 x 639 km, 48.2° (Epoch: 27 May)

Date Brightness Start Highest point End Pass type
(mag) Time Alt. Az. Time Alt. Az. Time Alt. Az.
27 May - 01:37:36 10° WSW 01:42:07 79° SSE 01:46:36 10° ENE daylight
27 May - 03:19:32 10° W 03:23:51 46° N 03:28:09 10° ENE visible
27 May - 05:01:32 10° WNW 05:05:53 50° NNE 05:10:11 10° E visible
27 May - 06:43:07 10° WNW 06:47:30 62° SSW 06:51:50 10° SE visible
27 May - 08:26:14 10° WSW 08:28:18 13° SW 08:30:22 10° SSW visible
28 May - 00:12:28 10° SSW 00:16:33 33° SE 00:20:36 10° ENE daylight
28 May - 01:53:21 10° WSW 01:57:52 70° NNW 02:02:19 10° ENE daylight
28 May - 03:35:30 10° WNW 03:39:47 43° N 03:44:01 10° ENE visible
28 May - 05:17:18 10° WNW 05:21:43 66° NNE 05:26:06 10° ESE visible
28 May - 06:59:01 10° WNW 07:03:03 35° SW 07:07:03 10° SSE visible
28 May - 22:49:21 10° SSE 22:51:17 13° SE 22:53:12 10° ESE daylight
29 May - 00:27:38 10° SW 00:32:06 58° SSE 00:36:31 10° ENE daylight
29 May - 02:09:16 10° W 02:13:41 52° NNW 02:18:03 10° ENE daylight
29 May - 03:51:24 10° WNW 03:55:42 45° N 03:59:58 10° E visible
29 May - 05:33:01 10° WNW 05:37:29 84° SSW 05:41:53 10° ESE visible
29 May - 07:15:17 10° W 07:18:29 20° SW 07:21:40 10° S visible
29 May - 23:03:00 10° S 23:06:38 23° SE 23:10:13 10° E daylight
30 May - 00:43:12 10° WSW 00:47:45 88° NNW 00:52:16 10° ENE daylight
30 May - 02:25:15 10° W 02:29:35 44° N 02:33:51 10° ENE daylight
30 May - 04:07:11 10° WNW 04:11:35 55° NNE 04:15:56 10° E visible
30 May - 05:48:48 10° WNW 05:53:06 51° SSW 05:57:21 10° SE visible
30 May - 23:17:48 10° SW 23:22:06 41° SE 23:26:21 10° ENE daylight
31 May - 00:59:01 10° W 01:03:31 62° NNW 01:07:58 10° ENE daylight
31 May - 02:41:11 10° WNW 02:45:30 43° N 02:49:45 10° ENE daylight
31 May - 04:22:55 10° WNW 04:27:23 75° NNE 04:31:48 10° ESE visible
31 May - 06:04:47 10° W 06:08:36 29° SW 06:12:24 10° SSE visible
31 May - 21:53:55 10° S 21:56:45 16° SE 21:59:33 10° E daylight
31 May - 23:33:08 10° SW 23:37:40 70° SSE 23:42:11 10° ENE daylight
01 Jun - 01:14:57 10° W 01:19:22 48° N 01:23:43 10° ENE daylight
01 Jun - 02:57:02 10° WNW 03:01:24 48° N 03:05:42 10° E daylight
01 Jun - 04:38:38 10° WNW 04:43:05 71° SSW 04:47:29 10° SE visible
01 Jun - 06:21:19 10° W 06:23:59 16° SW 06:26:38 10° S visible
01 Jun - 22:08:10 10° SSW 22:12:08 29° SE 22:16:03 10° E daylight
01 Jun - 23:48:48 10° WSW 23:53:22 77° NNW 23:57:54 10° ENE daylight
02 Jun - 01:30:55 10° WNW 01:35:16 43° N 01:39:33 10° ENE daylight
02 Jun - 03:12:47 10° WNW 03:17:15 61° NNE 03:21:38 10° E daylight
02 Jun - 04:54:27 10° WNW 04:58:40 41° SW 05:02:48 10° SE visible
02 Jun - 20:46:01 10° SE 20:46:54 10° SE 20:47:47 10° ESE daylight
02 Jun - 22:23:11 10° SW 22:27:38 51° SSE 22:32:02 10° ENE daylight
03 Jun - 00:04:40 10° W 00:09:10 56° NNW 00:13:36 10° ENE daylight
03 Jun - 01:46:50 10° WNW 01:51:11 44° N 01:55:28 10° ENE daylight
03 Jun - 03:28:30 10° WNW 03:33:00 87° NNE 03:37:27 10° ESE visible
03 Jun - 05:10:35 10° W 05:14:07 23° SW 05:17:36 10° S visible
03 Jun - 20:58:48 10° S 21:02:12 20° SE 21:05:34 10° E daylight
03 Jun - 22:38:38 10° WSW 22:43:15 83° SSE 22:47:48 10° ENE daylight
04 Jun - 00:20:37 10° W 00:25:01 46° N 00:29:22 10° ENE daylight
04 Jun - 02:02:38 10° WNW 02:07:03 51° NNE 02:11:25 10° E daylight
04 Jun - 03:44:14 10° WNW 03:48:39 59° SSW 03:53:00 10° SE visible
04 Jun - 05:27:35 10° WSW 05:29:25 12° SW 05:31:14 10° SSW visible
04 Jun - 21:13:23 10° SSW 21:17:37 36° SE 21:21:47 10° ENE daylight
04 Jun - 22:54:23 10° WSW 22:58:58 68° NNW 23:03:30 10° ENE daylight
05 Jun - 00:36:33 10° WNW 00:40:56 43° N 00:45:14 10° ENE daylight
05 Jun - 02:18:21 10° WNW 02:22:52 69° NNE 02:27:18 10° ESE daylight
05 Jun - 04:00:08 10° WNW 04:04:11 34° SW 04:08:09 10° SSE visible
05 Jun - 19:49:58 10° SSE 19:52:18 14° SE 19:54:37 10° ESE daylight
05 Jun - 21:28:35 10° SW 21:33:09 62° SSE 21:37:39 10° ENE daylight
05 Jun - 23:10:18 10° W 23:14:47 51° NNW 23:19:13 10° ENE daylight
